This is the latest recevied weather packets stored in our database for station/object KM8V-8. If no packets are shown the sender has not sent any weather packets the latest 10 day(s).
| Time | Temp. | Humidity | Pressure | Rain* | Wind** | Luminosity | Snow |
|---|---|---|---|---|---|---|---|
| 1777762220 | 7.22° C | 58% | 1016.1 hPa | 0 mm | - | 92 W/m² | - |
| 1777761918 | 7.22° C | 56% | 1016.2 hPa | 0 mm | - | 98 W/m² | - |
| 1777761619 | 7.22° C | 56% | 1016.2 hPa | 0 mm | - | 113 W/m² | - |
| 1777761318 | 7.22° C | 57% | 1016.2 hPa | 0 mm | - | 125 W/m² | - |
| 1777761019 | 7.22° C | 56% | 1016.1 hPa | 0 mm | - | 138 W/m² | - |
| 1777760720 | 7.22° C | 56% | 1016.2 hPa | 0 mm | - | 152 W/m² | - |
| 1777760419 | 7.22° C | 55% | 1016.2 hPa | 0 mm | - | 163 W/m² | - |
| 1777760119 | 7.22° C | 55% | 1016.2 hPa | 0 mm | - | 185 W/m² | - |
| 1777759819 | 7.78° C | 55% | 1016.2 hPa | 0 mm | - | 196 W/m² | - |
| 1777759519 | 7.22° C | 58% | 1016.2 hPa | 0 mm | - | 217 W/m² | - |
| 1777759219 | 7.22° C | 59% | 1016.1 hPa | 0 mm | - | 240 W/m² | - |
| 1777758919 | 7.22° C | 59% | 1016.2 hPa | 0 mm | - | 241 W/m² | - |
| 1777758619 | 7.22° C | 58% | 1016.2 hPa | 0 mm | - | 224 W/m² | - |
| 1777758320 | 7.22° C | 59% | 1016.1 hPa | 0 mm | - | 232 W/m² | - |
| 1777758019 | 7.22° C | 59% | 1016.1 hPa | 0 mm | - | 250 W/m² | - |
| 1777757720 | 7.22° C | 62% | 1016.1 hPa | 0 mm | - | 252 W/m² | - |
| 1777757427 | 6.67° C | 61% | 1016.1 hPa | 0 mm | - | 275 W/m² | - |
| 1777757119 | 6.67° C | 61% | 1016.1 hPa | 0 mm | - | 350 W/m² | - |
| 1777756520 | 6.67° C | 61% | 1016.2 hPa | 0 mm | - | 265 W/m² | - |
| 1777756220 | 6.67° C | 63% | 1016.2 hPa | 0 mm | - | 223 W/m² | - |
| 1777755920 | 6.11° C | 63% | 1016.2 hPa | 0 mm | - | 198 W/m² | - |
| 1777755620 | 6.67° C | 63% | 1016.2 hPa | 0 mm | - | 169 W/m² | - |
| 1777755320 | 6.67° C | 62% | 1016.2 hPa | 0 mm | - | 149 W/m² | - |
| 1777755021 | 6.67° C | 63% | 1016.3 hPa | 0 mm | - | 134 W/m² | - |
| 1777754722 | 6.67° C | 62% | 1016.2 hPa | 0 mm | - | 116 W/m² | - |
* Rain latest hour (hover to see other rain measurements)
** Current wind speed in m/s (hover to see current wind gust speed)